Flag for Saint Lucia Weather past 2 weeks in Vieux Fort, Saint Lucia

Now
79 °F

Passing clouds.


Feels Like: 81 °F
Forecast: 78 / 85 °F
Wind: 16 mph from East

Location: Hewanorra International Airport


UV Index: 10 (Very high)

Visibility: N/A


Pressure: 29.95 "Hg

Humidity: 74%

Dew point: 70 °F

Location of Vieux FortLocation

Historic Weather in Vieux Fort

°F

Vieux Fort temperature yesterday

Maximum temperature yesterday: 86 °F (at 12:00 PM)
Minimum temperature yesterday: 75 °F (at 11:00 PM)
Average temperature yesterday: 81 °F

Past Weeks' High & Low Weather Summary

 TemperatureHumidityPressure
High86 °F (Apr 15, 1:00 PM)94% (Apr 6, 6:00 AM)30.09 "Hg (Apr 6, 6:00 AM)
Low73 °F (Apr 15, 3:00 AM)55% (Apr 12, 3:00 PM)29.86 "Hg (Apr 14, 5:00 PM)
Average81 °F72%29.99 "Hg
* Reported Apr 2 5:00 AM — Apr 17 5:00 AM, Vieux Fort, Weather by CustomWeather, © 2014

Note: Actual official high and low records may vary slightly from our data, if they occured in-between our weather recording intervals... More about our weather records

Advertising

Historic Weather Conditions — Data for Previous 24 hours

 ConditionsComfort  
Time TempWeatherWind HumidityBarometerVisibility
5:00 AM
Apr 17
79 °FPassing clouds.12 mph79%29.92 "HgN/A
4:00 AM79 °FSprinkles. Passing clouds.14 mph79%29.92 "HgN/A
3:00 AM79 °FScattered showers. Passing clouds.13 mph79%29.92 "Hg4 mi
2:00 AM79 °FPassing clouds.15 mph79%29.92 "HgN/A
1:00 AM79 °FPassing clouds.10 mph79%29.95 "HgN/A
12:00 AM79 °FPassing clouds.12 mph61%29.95 "HgN/A
11:00 PM
Apr 16
75 °FPassing clouds.9 mph89%29.98 "HgN/A
10:00 PM79 °FPassing clouds.13 mph79%29.98 "HgN/A
9:00 PM79 °FSprinkles. Partly cloudy.7 mph84%29.95 "HgN/A
8:00 PM81 °FPassing clouds.12 mph79%29.92 "HgN/A
6:00 PM81 °FScattered clouds.13 mph74%29.89 "HgN/A
4:00 PM84 °FBroken clouds.13 mph66%29.89 "HgN/A
3:00 PM84 °FPartly sunny.13 mph66%29.92 "HgN/A
2:00 PM84 °FBroken clouds.12 mph70%29.92 "HgN/A
1:00 PM84 °FScattered clouds.15 mph66%29.95 "HgN/A
12:00 PM86 °FBroken clouds.15 mph62%29.95 "HgN/A
11:00 AM84 °FBroken clouds.17 mph66%29.98 "HgN/A
10:00 AM84 °FPartly sunny.16 mph66%29.98 "HgN/A
9:00 AM82 °FPartly sunny.18 mph66%29.98 "HgN/A
8:00 AM82 °FPartly sunny.18 mph66%29.95 "HgN/A
6:00 AM79 °FPartly sunny.16 mph74%29.92 "HgN/A
Weather by CustomWeather, © 2014

See weather overview